Dewpoint
54 56 57 57 60 59 59 59 58 57 56 56 56 55 55 55 54 53 49 48 50 48 46 45 44 43 40 40 40 39 38 38 37 35 34 34 33 32 32 30 28 27 28
54 56 57 58 59 58 59 59 58 57 56 56 56 56 55 53 52 50 47 47 47 46 45 44 43 41 40 39 39 38 38 39 36 34 33 30 32 33 31 29 28 25 27
52 54 57 58 58 57 58 58 58 57 56 56 56 53 49 48 46 45 45 45 46 45 44 43 42 41 41 39 39 39 38 36 37 35 33 30 29 30 31 28 26 24 26
48 50 55 57 56 56 58 59 58 58 56 56 56 53 52 49 45 45 45 45 44 41 38 37 37 37 38 37 38 39 38 37 35 35 36 33 31 28 28 28 26 26 25
44 47 52 55 56 56 58 59 59 59 57 56 56 54 51 46 46 45 44 35 37 37 36 37 37 37 37 37 37 38 38 38 36 35 35 34 32 30 29 25 24 26 27
46 49 50 54 55 58 58 58 59 58 58 57 55 54 49 46 44 42 36 35 37 36 36 35 36 37 37 36 38 38 37 38 37 37 36 35 33 29 27 26 25 25 27
48 53 56 56 57 58 58 58 58 58 58 58 53 50 47 45 43 39 35 36 35 34 35 35 36 36 35 35 37 37 37 36 36 35 36 35 33 32 30 28 28 27 26
48 53 56 57 57 58 58 59 58 52 51 53 49 46 45 47 47 44 38 36 35 35 35 35 35 34 34 33 32 34 35 37 37 37 37 36 36 35 33 31 33 33 31
50 54 57 58 58 58 58 57 51 47 45 45 42 40 42 42 42 41 36 35 36 34 35 35 34 34 33 32 33 34 34 37 37 36 36 36 37 36 36 37 37 35 28
52 53 55 55 55 54 51 50 46 43 41 40 40 39 38 37 36 35 35 34 35 36 35 34 33 33 32 32 32 33 34 34 34 35 34 35 36 37 36 35 33 33 29
51 52 53 53 52 49 48 46 42 38 38 39 38 38 37 38 35 33 33 33 35 34 34 34 33 32 31 32 33 33 33 33 32 33 32 33 35 35 34 33 29 26 26
50 51 51 50 48 48 47 45 42 39 39 40 41 39 37 36 35 34 34 35 33 34 34 33 32 31 31 31 32 31 32 32 30 30 31 32 34 33 29 27 24 21 20
48 49 49 48 47 46 46 46 44 43 41 41 40 36 37 36 35 35 35 34 33 33 32 32 31 31 32 32 32 32 33 31 30 30 30 29 28 26 26 23 21 19 18
45 47 47 48 48 47 46 46 45 42 41 40 38 38 37 37 35 35 35 35 34 33 32 32 33 33 33 32 32 32 31 31 31 31 30 29 27 25 22 20 19 17 18
44 43 45 46 47 48 47 46 44 44 44 40 38 39 37 38 37 37 36 36 35 33 33 33 33 34 33 31 33 31 30 29 28 28 26 24 23 25 22 18 17 19 19
41 42 42 44 46 46 46 44 43 43 41 40 40 39 39 38 37 35 34 33 33 33 33 34 34 33 31 33 35 32 29 27 25 24 23 21 26 27 28 26 25 22 19
38 40 42 42 43 45 45 42 42 41 40 39 40 37 34 32 33 33 34 35 36 37 35 33 31 31 32 34 35 33 27 25 24 24 22 21 20 26 25 26 23 21 21
35 34 35 41 44 44 42 41 40 39 37 35 33 33 34 34 35 35 37 38 37 36 35 32 31 31 31 33 34 33 24 24 24 25 23 22 21 24 21 20 19 19 19
33 33 33 33 34 34 35 31 31 31 32 32 35 36 37 37 38 37 37 37 37 35 31 31 30 29 29 33 34 31 23 23 24 25 24 23 22 24 26 22 20 19 19
33 33 33 33 32 32 32 31 31 32 33 35 37 39 39 38 37 37 37 35 32 30 30 28 28 30 29 31 34 31 24 24 25 25 25 28 24 25 26 22 21 19 18
33 33 34 34 33 33 34 34 36 37 38 40 40 39 39 38 38 36 35 33 30 28 27 27 28 28 29 29 32 33 26 25 25 25 24 24 27 26 26 25 22 20 20
32 32 33 33 34 35 36 36 36 37 38 39 38 37 37 34 32 31 30 29 28 27 27 25 27 27 28 30 31 32 32 28 26 25 25 25 27 27 26 26 26 26 24
28 29 31 31 32 33 35 35 36 35 34 32 31 31 31 31 31 29 28 27 27 26 26 27 26 26 27 27 31 32 32 32 28 29 26 27 27 28 27 28 28 24 20
29 31 32 31 31 31 31 32 32 31 30 29 29 29 29 29 29 29 29 28 26 25 27 27 26 26 26 26 26 27 28 30 31 29 28 27 27 25 25 22 25 22 21
33 33 32 31 31 31 30 30 30 30 29 29 29 29 28 28 29 29 29 29 29 28 27 27 26 24 25 26 28 28 26 28 30 29 26 25 24 23 23 21 22 20 19
32 31 31 31 29 29 29 30 31 30 29 29 29 28 28 28 28 28 28 30 31 31 31 31 29 29 29 30 30 31 32 32 31 27 23 23 23 23 22 21 21 17 16
Lifted_Index
-3 -3 -2 -2 -3 -3 -3 -3 -2 -2 -2 -2 -2 -2 -1 -0 1 2 2 2 3 3 4 5 6 6 6 5 6 6 8 9 10 10 9 9 10 10 10 11 11 11 11
-3 -3 -3 -3 -3 -3 -4 -3 -3 -2 -2 -2 -2 -1 -1 0 1 1 2 3 4 4 5 5 6 6 5 5 5 6 8 9 10 10 9 9 9 10 10 10 11 11 12
-3 -3 -4 -4 -4 -4 -4 -3 -3 -3 -3 -2 -2 -1 -1 0 1 1 1 3 4 5 6 6 6 5 5 5 5 7 9 9 9 9 9 9 9 10 10 11 11 11 11
-2 -3 -4 -4 -4 -4 -3 -3 -3 -3 -3 -2 -2 -2 -1 -0 0 1 1 3 4 5 5 6 6 6 6 6 8 10 10 10 10 10 9 9 10 10 11 11 11 11 11
-2 -2 -3 -4 -4 -4 -3 -3 -3 -3 -3 -3 -2 -2 -1 -0 0 1 1 2 4 5 5 6 6 7 8 9 11 11 11 11 10 10 10 10 11 11 11 11 11 11 11
-2 -2 -2 -3 -3 -3 -2 -2 -2 -3 -3 -3 -3 -2 -1 -0 0 1 2 2 3 4 5 6 7 8 9 11 12 12 11 11 11 11 11 11 11 11 11 11 11 11 11
-1 -2 -2 -2 -2 -2 -2 -2 -3 -3 -3 -3 -3 -2 -1 -1 -0 1 1 1 2 4 5 7 8 8 10 12 13 13 12 12 12 11 11 11 11 11 11 11 11 11 11
-1 -1 -2 -2 -2 -2 -3 -3 -3 -3 -3 -3 -3 -2 -2 -1 -1 -0 1 2 3 5 6 8 8 10 12 13 14 14 13 13 12 12 11 11 11 11 11 10 10 10 10
-1 -1 -2 -3 -3 -3 -3 -3 -3 -3 -3 -3 -2 -2 -2 -1 -1 0 1 3 4 6 6 7 9 11 13 14 14 14 13 13 12 12 12 11 11 11 10 10 10 10 10
-1 -2 -2 -3 -3 -4 -4 -4 -3 -3 -3 -2 -2 -2 -1 -0 0 1 3 4 5 5 6 8 10 11 12 13 13 13 13 13 12 12 12 11 11 10 10 9 9 10 10
-2 -2 -3 -3 -4 -4 -4 -4 -3 -3 -2 -2 -1 -1 -0 1 2 3 4 4 5 6 7 9 10 11 12 12 13 13 13 12 12 11 11 11 10 10 9 9 9 10 10
-2 -3 -3 -4 -4 -4 -4 -3 -3 -3 -2 -1 -1 -0 1 1 2 3 4 5 6 7 8 9 10 11 12 12 12 12 12 11 11 10 10 10 9 9 9 9 9 10 10
-2 -3 -3 -4 -4 -4 -3 -3 -2 -2 -1 -1 -0 0 1 2 2 3 4 5 6 8 9 10 10 11 11 12 11 11 11 11 10 10 9 9 9 9 9 9 9 9 9
-2 -2 -3 -3 -3 -3 -2 -2 -1 -1 -1 -0 0 1 1 1 2 3 5 6 8 9 10 10 11 11 11 11 11 10 10 10 10 9 9 9 9 9 9 9 9 9 9
-1 -1 -2 -2 -2 -2 -1 -1 -1 -0 0 1 1 1 1 2 3 5 7 8 9 10 11 11 10 10 11 11 10 10 9 9 9 8 8 8 8 8 9 9 9 9 9
1 0 -0 -0 -0 -0 0 0 0 0 1 1 1 2 3 4 5 7 8 9 10 11 11 10 9 10 10 10 10 9 9 8 8 7 7 7 7 8 8 9 9 9 9
2 2 2 2 2 2 2 2 1 1 1 1 2 2 4 5 7 8 9 10 10 10 9 9 9 10 10 10 10 9 8 7 6 6 6 6 7 8 8 9 9 9 9
4 4 4 4 3 3 3 2 2 1 1 1 2 3 5 7 8 9 10 10 9 9 9 9 10 11 11 10 9 8 7 6 6 5 6 6 7 8 8 8 8 8 8
4 4 5 5 4 4 3 2 2 1 1 2 3 5 7 8 9 10 10 9 9 9 10 10 11 11 10 10 8 7 6 5 5 6 6 7 7 8 8 8 8 8 8
4 5 5 5 5 4 3 3 2 2 2 3 5 7 8 9 9 10 10 9 10 10 11 11 11 11 10 9 7 6 5 5 5 6 6 7 7 7 7 8 8 8 8
4 4 4 4 4 4 4 4 3 4 4 5 6 7 8 9 10 10 11 11 11 11 11 11 11 11 10 9 7 6 5 5 5 6 6 6 6 6 7 7 7 8 8
4 4 4 4 5 5 6 5 6 6 7 7 8 9 10 11 12 13 13 12 12 12 11 11 11 10 9 8 7 6 6 6 5 6 6 6 6 6 6 7 7 7 7
4 5 5 5 6 7 7 8 8 9 9 9 10 11 13 14 14 14 13 12 12 12 11 11 10 9 8 7 7 6 6 6 6 6 5 5 5 5 6 6 7 7 7
5 6 6 6 7 8 9 10 11 11 11 12 13 14 14 14 14 13 13 12 12 11 11 10 9 8 7 6 6 6 7 6 6 6 5 5 4 5 5 6 6 6 6
7 7 8 8 9 10 11 12 13 13 13 14 14 14 14 14 13 12 12 12 11 10 10 9 8 7 6 6 6 6 7 7 6 6 5 4 4 4 5 5 6 6 6
8 8 8 9 10 12 13 13 14 14 14 14 15 14 14 13 12 12 11 11 10 10 9 7 6 6 6 6 6 6 7 7 6 5 5 4 4 4 5 5 5 6 6